Simultaneous Nadir Overpasses (SNOs) Predictions

Prediction of SNOs between AQUA and NOAA-19 Satellite Orbit:

Table of predicted SNOs for the next 14.0 days since TLE Epoch: 12/5/2020
Index Date (AQUA) Time (AQUA) Lat,Lon (AQUA) SZA (AQUA ) Date (NOAA-19) Time (NOAA-19) Lat,Lon (NOAA-19) SZA (NOAA-19 ) Distance(km) Time Diff (sec)
1 12/05/2020 05:27:03 -79.33,-107.52 77.48 12/05/2020 05:26:09 -79.31,-107.48 77.49 2.49 54
2 12/05/2020 06:16:31 79.35, 59.98 102.56 12/05/2020 06:17:04 79.34, 60.11 102.54 2.69 33
3 12/07/2020 11:50:13 -79.31, 156.80 77.23 12/07/2020 11:50:22 -79.34, 156.79 77.21 2.51 9
4 12/09/2020 17:23:58 79.33,-106.73 103.04 12/09/2020 17:23:33 79.32,-106.58 103.02 3.25 25
5 12/09/2020 18:13:24 -79.34, 60.84 76.95 12/09/2020 18:14:36 -79.33, 60.76 76.97 1.94 72
6 12/11/2020 22:57:40 -79.30, -9.95 76.81 12/11/2020 22:56:50 -79.31, -9.91 76.79 1.40 50
7 12/11/2020 23:47:08 79.32, 157.51 103.23 12/11/2020 23:47:47 79.32, 157.51 103.22 0.02 39
8 12/14/2020 05:20:50 -79.29,-105.74 76.65 12/14/2020 05:21:03 -79.33,-105.70 76.62 3.51 13
9 12/16/2020 10:54:34 79.29, -9.17 103.48 12/16/2020 10:54:16 79.29, -9.25 103.49 1.83 18
10 12/16/2020 11:44:02 -79.38, 157.94 76.41 12/16/2020 11:45:13 -79.43, 159.32 76.48 29.01 71
11 12/18/2020 16:28:16 -79.27, 87.55 76.47 12/18/2020 16:27:31 -79.28, 87.49 76.44 1.98 45



Historial Predications of SNOs between AQUA and NOAA-19
